Time,TemperatureF,DewpointF,PressureIn,WindDirection,WindDirectionDegrees,WindSpeedMPH,WindSpeedGustMPH,Humidity,HourlyPrecipIn,Conditions,Clouds,dailyrainin,SoftwareType,DateUTC
2013-07-04 00:02:00,53.1,50.5,29.88,North,0,2.5,2.5,91,0.00,,---,0.00,VWS V14.01,2013-07-03 14:02:00,
2013-07-04 00:06:00,53.1,50.5,29.88,ENE,68,0.0,0.0,91,0.00,,---,0.00,VWS V14.01,2013-07-03 14:06:00,
2013-07-04 00:09:00,53.1,50.5,29.88,North,0,1.6,1.6,91,0.00,,---,0.00,VWS V14.01,2013-07-03 14:09:00,
2013-07-04 00:14:00,53.1,50.5,29.88,NNW,338,3.1,3.1,91,0.00,,---,0.00,VWS V14.01,2013-07-03 14:14:00,
2013-07-04 00:17:00,53.1,50.5,29.88,West,270,2.0,3.6,91,0.00,,---,0.00,VWS V14.01,2013-07-03 14:17:00,
2013-07-04 00:22:00,52.9,50.3,29.88,North,0,2.5,2.5,91,0.00,,---,0.00,VWS V14.01,2013-07-03 14:22:00,
2013-07-04 00:27:00,52.9,50.3,29.88,North,0,4.9,4.9,91,0.00,,---,0.00,VWS V14.01,2013-07-03 14:27:00,
2013-07-04 00:30:00,52.9,50.3,29.88,NNW,338,3.6,3.6,91,0.00,,---,0.00,VWS V14.01,2013-07-03 14:30:00,
2013-07-04 00:35:00,52.7,50.2,29.88,North,0,2.9,2.9,91,0.00,,---,0.00,VWS V14.01,2013-07-03 14:35:00,
2013-07-04 00:38:00,52.7,50.2,29.88,NW,315,3.1,3.1,91,0.00,,---,0.00,VWS V14.01,2013-07-03 14:38:00,
2013-07-04 00:41:00,52.7,50.2,29.88,NW,315,2.7,2.7,91,0.00,,---,0.00,VWS V14.01,2013-07-03 14:41:00,
2013-07-04 00:47:00,52.7,50.2,29.88,North,0,2.5,4.7,91,0.00,,---,0.00,VWS V14.01,2013-07-03 14:47:00,
2013-07-04 00:51:00,52.5,50.0,29.88,NW,315,3.6,3.6,91,0.00,,---,0.00,VWS V14.01,2013-07-03 14:51:00,
2013-07-04 00:56:00,52.5,50.0,29.85,NNW,338,2.7,2.7,91,0.00,,---,0.00,VWS V14.01,2013-07-03 14:56:00,
2013-07-04 00:58:00,52.5,50.0,29.85,NW,315,4.3,4.9,91,0.00,,---,0.00,VWS V14.01,2013-07-03 14:58:00,
2013-07-04 01:03:00,52.5,50.0,29.85,West,270,2.5,2.5,91,0.00,,---,0.00,VWS V14.01,2013-07-03 15:03:00,
2013-07-04 01:08:00,52.5,50.0,29.85,West,270,2.5,2.5,91,0.00,,---,0.00,VWS V14.01,2013-07-03 15:08:00,
2013-07-04 01:13:00,52.3,49.8,29.85,NNW,338,3.8,3.8,91,0.00,,---,0.00,VWS V14.01,2013-07-03 15:13:00,
2013-07-04 01:15:00,52.3,49.8,29.85,NW,315,3.8,3.8,91,0.00,,---,0.00,VWS V14.01,2013-07-03 15:15:00,
2013-07-04 01:20:00,52.2,49.6,29.85,NNW,338,3.8,3.8,91,0.00,,---,0.00,VWS V14.01,2013-07-03 15:20:00,
2013-07-04 01:26:00,52.2,49.6,29.85,North,0,4.3,5.4,91,0.00,,---,0.00,VWS V14.01,2013-07-03 15:26:00,
2013-07-04 01:28:00,52.2,49.6,29.85,NNW,338,2.9,3.1,91,0.00,,---,0.00,VWS V14.01,2013-07-03 15:28:00,
2013-07-04 01:33:00,52.0,49.4,29.85,NW,315,2.9,2.9,91,0.00,,---,0.00,VWS V14.01,2013-07-03 15:33:00,
2013-07-04 01:38:00,52.0,49.4,29.85,NW,315,3.4,6.5,91,0.00,,---,0.00,VWS V14.01,2013-07-03 15:38:00,
2013-07-04 01:40:00,52.0,49.4,29.85,WNW,292,3.4,3.4,91,0.00,,---,0.00,VWS V14.01,2013-07-03 15:40:00,
2013-07-04 01:45:00,52.0,49.4,29.85,NW,315,2.5,2.7,91,0.00,,---,0.00,VWS V14.01,2013-07-03 15:45:00,
2013-07-04 01:50:00,52.0,49.4,29.85,NW,315,2.7,2.7,91,0.00,,---,0.00,VWS V14.01,2013-07-03 15:50:00,
2013-07-04 01:52:00,52.0,49.4,29.85,NW,315,2.7,2.7,91,0.00,,---,0.00,VWS V14.01,2013-07-03 15:52:00,
2013-07-04 01:57:00,51.8,49.3,29.85,West,270,1.3,1.3,91,0.00,,---,0.00,VWS V14.01,2013-07-03 15:57:00,
2013-07-04 02:02:00,51.8,49.3,29.85,NW,315,3.8,3.8,91,0.00,,---,0.00,VWS V14.01,2013-07-03 16:02:00,
2013-07-04 02:07:00,51.8,49.3,29.85,NW,315,0.0,1.3,91,0.00,,---,0.00,VWS V14.01,2013-07-03 16:07:00,
2013-07-04 02:12:00,51.6,49.1,29.85,North,0,4.3,4.3,91,0.00,,---,0.00,VWS V14.01,2013-07-03 16:12:00,
2013-07-04 02:17:00,51.6,49.1,29.85,North,0,0.9,0.9,91,0.00,,---,0.00,VWS V14.01,2013-07-03 16:17:00,
2013-07-04 02:22:00,51.6,49.4,29.85,NNE,22,1.3,1.3,92,0.00,,---,0.00,VWS V14.01,2013-07-03 16:22:00,
2013-07-04 02:27:00,51.6,49.4,29.85,NNW,338,5.6,5.6,92,0.00,,---,0.00,VWS V14.01,2013-07-03 16:27:00,
2013-07-04 02:32:00,51.4,49.2,29.85,NNW,338,2.7,2.7,92,0.00,,---,0.00,VWS V14.01,2013-07-03 16:32:00,
2013-07-04 02:37:00,51.3,49.0,29.85,NNW,338,1.6,1.6,92,0.00,,---,0.00,VWS V14.01,2013-07-03 16:37:00,
2013-07-04 02:42:00,51.3,49.0,29.85,NNE,22,2.5,2.5,92,0.00,,---,0.00,VWS V14.01,2013-07-03 16:42:00,
2013-07-04 02:48:00,51.1,48.8,29.85,NW,315,1.3,1.3,92,0.00,,---,0.00,VWS V14.01,2013-07-03 16:48:00,
2013-07-04 02:53:00,51.1,48.8,29.85,West,270,1.1,1.1,92,0.00,,---,0.00,VWS V14.01,2013-07-03 16:53:00,
2013-07-04 02:58:00,50.9,48.7,29.85,SW,225,1.3,2.7,92,0.00,,---,0.00,VWS V14.01,2013-07-03 16:58:00,
2013-07-04 03:03:00,50.7,48.5,29.85,North,0,4.0,4.0,92,0.00,,---,0.00,VWS V14.01,2013-07-03 17:03:00,
2013-07-04 03:08:00,50.7,48.2,29.85,NNW,338,2.9,3.6,91,0.00,,---,0.00,VWS V14.01,2013-07-03 17:08:00,
2013-07-04 03:13:00,50.5,48.0,29.85,NW,315,2.0,4.3,91,0.00,,---,0.00,VWS V14.01,2013-07-03 17:13:00,
2013-07-04 03:18:00,50.5,48.0,29.85,NNW,338,2.5,2.5,91,0.00,,---,0.00,VWS V14.01,2013-07-03 17:18:00,
2013-07-04 03:23:00,50.5,48.0,29.85,North,0,0.9,4.0,91,0.00,,---,0.00,VWS V14.01,2013-07-03 17:23:00,
2013-07-04 03:28:00,50.4,47.8,29.85,NNW,338,3.8,3.8,91,0.00,,---,0.00,VWS V14.01,2013-07-03 17:28:00,
2013-07-04 03:33:00,50.2,47.7,29.85,NNW,338,3.4,3.4,91,0.00,,---,0.00,VWS V14.01,2013-07-03 17:33:00,
2013-07-04 03:38:00,50.2,47.7,29.85,NE,45,2.2,2.2,91,0.00,,---,0.00,VWS V14.01,2013-07-03 17:38:00,
2013-07-04 03:43:00,50.0,47.5,29.85,SE,135,0.0,0.0,91,0.00,,---,0.00,VWS V14.01,2013-07-03 17:43:00,
2013-07-04 03:48:00,50.0,47.5,29.85,NW,315,1.6,4.0,91,0.00,,---,0.00,VWS V14.01,2013-07-03 17:48:00,
2013-07-04 03:53:00,49.8,47.3,29.85,NNW,338,1.1,1.1,91,0.00,,---,0.00,VWS V14.01,2013-07-03 17:53:00,
2013-07-04 03:58:00,49.8,47.0,29.82,NE,45,4.9,4.9,90,0.00,,---,0.00,VWS V14.01,2013-07-03 17:58:00,
2013-07-04 04:03:00,49.6,46.8,29.82,NNW,338,1.1,1.1,90,0.00,,---,0.00,VWS V14.01,2013-07-03 18:03:00,
2013-07-04 04:08:00,49.5,46.7,29.82,SW,225,0.0,3.4,90,0.00,,---,0.00,VWS V14.01,2013-07-03 18:08:00,
2013-07-04 04:13:00,49.3,46.5,29.82,NW,315,0.9,1.6,90,0.00,,---,0.00,VWS V14.01,2013-07-03 18:13:00,
2013-07-04 04:18:00,49.3,46.5,29.82,North,0,6.0,6.0,90,0.00,,---,0.00,VWS V14.01,2013-07-03 18:18:00,
2013-07-04 04:23:00,49.1,46.3,29.82,NNE,22,3.1,3.1,90,0.00,,---,0.00,VWS V14.01,2013-07-03 18:23:00,
2013-07-04 04:28:00,48.9,46.1,29.82,North,0,3.6,3.6,90,0.00,,---,0.00,VWS V14.01,2013-07-03 18:28:00,
2013-07-04 04:33:00,48.9,46.1,29.82,NW,315,3.1,3.6,90,0.00,,---,0.00,VWS V14.01,2013-07-03 18:33:00,
2013-07-04 04:38:00,48.7,45.9,29.82,NNW,338,1.6,3.4,90,0.00,,---,0.00,VWS V14.01,2013-07-03 18:38:00,
2013-07-04 04:43:00,48.7,45.7,29.82,NNW,338,1.3,1.3,89,0.00,,---,0.00,VWS V14.01,2013-07-03 18:43:00,
2013-07-04 04:49:00,48.7,45.7,29.82,SE,135,2.7,2.7,89,0.00,,---,0.00,VWS V14.01,2013-07-03 18:49:00,
2013-07-04 04:54:00,48.6,45.5,29.82,NNW,338,2.7,4.3,89,0.00,,---,0.00,VWS V14.01,2013-07-03 18:54:00,
2013-07-04 04:59:00,48.7,45.7,29.82,NNW,338,2.7,2.7,89,0.00,,---,0.00,VWS V14.01,2013-07-03 18:59:00,
2013-07-04 05:04:00,48.7,45.7,29.82,WSW,248,0.0,0.0,89,0.00,,---,0.00,VWS V14.01,2013-07-03 19:04:00,
2013-07-04 05:09:00,48.7,45.7,29.82,NNE,22,2.5,3.8,89,0.00,,---,0.00,VWS V14.01,2013-07-03 19:09:00,
2013-07-04 05:14:00,48.7,45.7,29.82,NW,315,3.4,4.0,89,0.00,,---,0.00,VWS V14.01,2013-07-03 19:14:00,
2013-07-04 05:19:00,48.7,45.7,29.82,NW,315,3.6,3.6,89,0.00,,---,0.00,VWS V14.01,2013-07-03 19:19:00,
2013-07-04 05:24:00,48.7,45.7,29.82,West,270,3.1,4.0,89,0.00,,---,0.00,VWS V14.01,2013-07-03 19:24:00,
2013-07-04 05:29:00,48.7,45.7,29.82,WNW,292,3.4,3.4,89,0.00,,---,0.00,VWS V14.01,2013-07-03 19:29:00,
2013-07-04 05:34:00,48.7,45.9,29.82,East,90,0.9,0.9,90,0.00,,---,0.00,VWS V14.01,2013-07-03 19:34:00,
2013-07-04 05:39:00,48.7,45.9,29.82,WNW,292,4.9,4.9,90,0.00,,---,0.00,VWS V14.01,2013-07-03 19:39:00,
2013-07-04 05:44:00,48.7,45.9,29.82,WSW,248,5.4,5.4,90,0.00,,---,0.00,VWS V14.01,2013-07-03 19:44:00,
2013-07-04 05:49:00,48.6,45.8,29.82,WNW,292,2.7,2.7,90,0.00,,---,0.00,VWS V14.01,2013-07-03 19:49:00,
2013-07-04 05:54:00,48.6,45.8,29.82,NW,315,5.6,5.6,90,0.00,,---,0.00,VWS V14.01,2013-07-03 19:54:00,
2013-07-04 06:00:00,48.6,45.8,29.82,NNE,22,6.5,8.7,90,0.00,,---,0.00,VWS V14.01,2013-07-03 20:00:00,
2013-07-04 06:05:00,48.6,45.8,29.82,NNW,338,4.3,4.3,90,0.00,,---,0.00,VWS V14.01,2013-07-03 20:05:00,
2013-07-04 06:10:00,48.7,45.9,29.82,WNW,292,3.6,5.6,90,0.00,,---,0.00,VWS V14.01,2013-07-03 20:10:00,
2013-07-04 06:15:00,48.7,45.9,29.82,North,0,3.8,3.8,90,0.00,,---,0.00,VWS V14.01,2013-07-03 20:15:00,
2013-07-04 06:20:00,48.7,45.7,29.82,NW,315,4.0,4.0,89,0.00,,---,0.00,VWS V14.01,2013-07-03 20:20:00,
2013-07-04 06:25:00,48.7,45.7,29.82,West,270,9.8,10.1,89,0.00,,---,0.00,VWS V14.01,2013-07-03 20:25:00,
2013-07-04 06:30:00,48.7,45.7,29.82,West,270,2.9,7.6,89,0.00,,---,0.00,VWS V14.01,2013-07-03 20:30:00,
2013-07-04 06:35:00,48.7,45.7,29.82,NNW,338,11.0,11.0,89,0.00,,---,0.00,VWS V14.01,2013-07-03 20:35:00,
2013-07-04 06:40:00,48.7,45.7,29.82,NW,315,2.5,6.9,89,0.00,,---,0.00,VWS V14.01,2013-07-03 20:40:00,
2013-07-04 06:45:00,48.7,45.7,29.82,West,270,4.9,4.9,89,0.00,,---,0.00,VWS V14.01,2013-07-03 20:45:00,
2013-07-04 06:50:00,48.7,45.7,29.82,NNW,338,7.6,7.6,89,0.00,,---,0.00,VWS V14.01,2013-07-03 20:50:00,
2013-07-04 06:55:00,48.7,45.7,29.82,NNW,338,6.0,6.0,89,0.00,,---,0.00,VWS V14.01,2013-07-03 20:55:00,
2013-07-04 07:00:00,48.7,45.7,29.79,NW,315,8.1,8.1,89,0.00,,---,0.00,VWS V14.01,2013-07-03 21:00:00,
2013-07-04 07:05:00,48.7,45.7,29.79,WSW,248,4.3,5.4,89,0.00,,---,0.00,VWS V14.01,2013-07-03 21:05:00,
2013-07-04 07:10:00,48.7,45.3,29.79,WNW,292,3.6,3.6,88,0.00,,---,0.00,VWS V14.01,2013-07-03 21:10:00,
2013-07-04 07:15:00,48.7,45.3,29.82,NW,315,5.4,7.4,88,0.00,,---,0.00,VWS V14.01,2013-07-03 21:15:00,
2013-07-04 07:20:00,48.9,45.5,29.82,West,270,3.6,6.5,88,0.00,,---,0.00,VWS V14.01,2013-07-03 21:20:00,
2013-07-04 07:25:00,48.9,45.5,29.82,NW,315,8.7,8.7,88,0.00,,---,0.00,VWS V14.01,2013-07-03 21:25:00,
2013-07-04 07:30:00,48.9,45.5,29.82,WNW,292,3.8,3.8,88,0.00,,---,0.00,VWS V14.01,2013-07-03 21:30:00,
2013-07-04 07:35:00,49.1,45.7,29.82,North,0,6.0,6.0,88,0.00,,---,0.00,VWS V14.01,2013-07-03 21:35:00,
2013-07-04 07:40:00,49.1,45.7,29.82,NW,315,4.9,4.9,88,0.00,,---,0.00,VWS V14.01,2013-07-03 21:40:00,
2013-07-04 07:45:00,49.1,45.7,29.82,WNW,292,5.6,5.6,88,0.00,,---,0.00,VWS V14.01,2013-07-03 21:45:00,
2013-07-04 07:50:00,49.3,45.6,29.82,North,0,6.5,6.5,87,0.00,,---,0.00,VWS V14.01,2013-07-03 21:50:00,
2013-07-04 07:55:00,49.5,45.8,29.82,NW,315,2.9,2.9,87,0.00,,---,0.00,VWS V14.01,2013-07-03 21:55:00,
2013-07-04 08:00:00,49.5,45.8,29.82,WNW,292,9.6,9.6,87,0.00,,---,0.00,VWS V14.01,2013-07-03 22:00:00,
2013-07-04 08:05:00,49.6,45.9,29.82,NW,315,3.4,3.4,87,0.00,,---,0.00,VWS V14.01,2013-07-03 22:05:00,
2013-07-04 08:10:00,49.6,45.9,29.82,NNW,338,6.5,6.5,87,0.00,,---,0.00,VWS V14.01,2013-07-03 22:10:00,
2013-07-04 08:15:00,49.8,46.1,29.82,NNW,338,4.7,4.7,87,0.00,,---,0.00,VWS V14.01,2013-07-03 22:15:00,
2013-07-04 08:20:00,50.0,46.0,29.82,NW,315,3.6,6.3,86,0.00,,---,0.00,VWS V14.01,2013-07-03 22:20:00,
2013-07-04 08:25:00,50.2,46.2,29.82,WNW,292,2.9,2.9,86,0.00,,---,0.00,VWS V14.01,2013-07-03 22:25:00,
2013-07-04 08:30:00,50.4,46.3,29.82,WNW,292,5.6,5.6,86,0.00,,---,0.00,VWS V14.01,2013-07-03 22:30:00,
2013-07-04 08:35:00,50.5,46.5,29.82,West,270,5.4,5.4,86,0.00,,---,0.00,VWS V14.01,2013-07-03 22:35:00,
2013-07-04 08:40:00,50.9,46.9,29.82,WNW,292,3.1,9.2,86,0.00,,---,0.00,VWS V14.01,2013-07-03 22:40:00,
2013-07-04 08:45:00,51.1,47.0,29.82,NW,315,5.8,5.8,86,0.00,,---,0.00,VWS V14.01,2013-07-03 22:45:00,
2013-07-04 08:50:00,51.4,47.4,29.82,NW,315,4.0,5.4,86,0.00,,---,0.00,VWS V14.01,2013-07-03 22:50:00,
2013-07-04 08:55:00,51.8,47.4,29.82,NNW,338,6.3,6.3,85,0.00,,---,0.00,VWS V14.01,2013-07-03 22:55:00,
2013-07-04 09:00:00,52.2,47.8,29.82,West,270,8.1,8.1,85,0.00,,---,0.00,VWS V14.01,2013-07-03 23:00:00,
2013-07-04 09:06:00,52.5,48.2,29.82,NW,315,7.4,7.4,85,0.00,,---,0.00,VWS V14.01,2013-07-03 23:06:00,
2013-07-04 09:11:00,52.9,48.2,29.79,NW,315,7.6,7.6,84,0.00,,---,0.00,VWS V14.01,2013-07-03 23:11:00,
2013-07-04 09:16:00,53.2,48.5,29.79,WNW,292,11.0,11.0,84,0.00,,---,0.00,VWS V14.01,2013-07-03 23:16:00,
2013-07-04 09:21:00,53.6,48.6,29.79,WNW,292,5.4,5.4,83,0.00,,---,0.00,VWS V14.01,2013-07-03 23:21:00,
2013-07-04 09:26:00,54.0,48.9,29.79,NW,315,11.0,11.0,83,0.00,,---,0.00,VWS V14.01,2013-07-03 23:26:00,
2013-07-04 09:31:00,54.5,49.5,29.79,WNW,292,12.5,12.5,83,0.00,,---,0.00,VWS V14.01,2013-07-03 23:31:00,
2013-07-04 09:36:00,54.9,49.5,29.79,West,270,7.6,7.6,82,0.00,,---,0.00,VWS V14.01,2013-07-03 23:36:00,
2013-07-04 09:41:00,55.4,49.7,29.79,West,270,7.4,8.7,81,0.00,,---,0.00,VWS V14.01,2013-07-03 23:41:00,
2013-07-04 09:46:00,55.9,50.2,29.79,WNW,292,8.7,8.7,81,0.00,,---,0.00,VWS V14.01,2013-07-03 23:46:00,
2013-07-04 09:51:00,56.5,50.4,29.79,NNW,338,7.8,10.5,80,0.00,,---,0.00,VWS V14.01,2013-07-03 23:51:00,
2013-07-04 09:56:00,56.8,50.7,29.82,NNW,338,8.1,12.5,80,0.00,,---,0.00,VWS V14.01,2013-07-03 23:56:00,
2013-07-04 10:02:00,57.4,50.9,29.82,NW,315,6.0,11.0,79,0.00,,---,0.00,VWS V14.01,2013-07-04 00:02:00,
2013-07-04 10:07:00,57.9,51.1,29.82,NW,315,11.0,11.0,78,0.00,,---,0.00,VWS V14.01,2013-07-04 00:07:00,
2013-07-04 10:12:00,58.5,51.3,29.79,NW,315,10.3,10.3,77,0.00,,---,0.00,VWS V14.01,2013-07-04 00:12:00,
2013-07-04 10:17:00,58.8,51.6,29.79,NW,315,10.1,17.2,77,0.00,,---,0.00,VWS V14.01,2013-07-04 00:17:00,
2013-07-04 10:22:00,59.4,51.8,29.79,NW,315,6.5,12.5,76,0.00,,---,0.00,VWS V14.01,2013-07-04 00:22:00,
2013-07-04 10:27:00,59.7,51.8,29.79,West,270,6.0,8.7,75,0.00,,---,0.00,VWS V14.01,2013-07-04 00:27:00,
2013-07-04 10:32:00,60.3,52.0,29.79,NNW,338,12.1,12.1,74,0.00,,---,0.00,VWS V14.01,2013-07-04 00:32:00,
2013-07-04 10:37:00,60.6,51.9,29.79,WSW,248,12.3,12.3,73,0.00,,---,0.00,VWS V14.01,2013-07-04 00:37:00,
2013-07-04 10:43:00,61.0,52.3,29.79,WNW,292,4.0,4.0,73,0.00,,---,0.00,VWS V14.01,2013-07-04 00:43:00,
2013-07-04 10:48:00,61.3,52.6,29.79,WNW,292,10.5,10.5,73,0.00,,---,0.00,VWS V14.01,2013-07-04 00:48:00,
2013-07-04 10:53:00,61.7,52.6,29.79,West,270,8.5,8.5,72,0.00,,---,0.00,VWS V14.01,2013-07-04 00:53:00,
2013-07-04 10:58:00,62.2,53.1,29.79,WNW,292,6.9,6.9,72,0.00,,---,0.00,VWS V14.01,2013-07-04 00:58:00,
2013-07-04 11:03:00,62.4,53.3,29.79,WSW,248,12.8,12.8,72,0.00,,---,0.00,VWS V14.01,2013-07-04 01:03:00,
2013-07-04 11:08:00,62.8,53.2,29.79,NNW,338,7.8,12.3,71,0.00,,---,0.00,VWS V14.01,2013-07-04 01:08:00,
2013-07-04 13:06:00,63.1,53.6,29.76,NW,315,15.2,15.2,71,0.00,,---,0.00,VWS V14.01,2013-07-04 03:06:00,
2013-07-04 13:11:00,67.8,54.3,29.68,NW,315,10.3,15.7,62,0.00,,---,0.00,VWS V14.01,2013-07-04 03:11:00,
2013-07-04 13:17:00,67.8,52.0,29.68,West,270,12.3,12.3,57,0.00,,---,0.00,VWS V14.01,2013-07-04 03:17:00,
2013-07-04 13:22:00,67.8,53.4,29.68,NW,315,11.2,11.2,60,0.00,,---,0.00,VWS V14.01,2013-07-04 03:22:00,
2013-07-04 13:27:00,68.0,53.6,29.68,NW,315,10.1,11.4,60,0.00,,---,0.00,VWS V14.01,2013-07-04 03:27:00,
2013-07-04 13:32:00,68.0,53.6,29.68,NW,315,13.2,13.2,60,0.00,,---,0.00,VWS V14.01,2013-07-04 03:32:00,
2013-07-04 13:37:00,68.0,53.2,29.68,NW,315,15.9,15.9,59,0.00,,---,0.00,VWS V14.01,2013-07-04 03:37:00,
2013-07-04 13:42:00,68.0,51.2,29.68,North,0,19.5,25.5,55,0.00,,---,0.00,VWS V14.01,2013-07-04 03:42:00,
2013-07-04 13:47:00,68.0,52.2,29.68,WNW,292,13.0,13.0,57,0.00,,---,0.00,VWS V14.01,2013-07-04 03:47:00,
2013-07-04 13:52:00,68.0,52.2,29.68,WNW,292,14.8,14.8,57,0.00,,---,0.00,VWS V14.01,2013-07-04 03:52:00,
2013-07-04 13:57:00,68.0,51.7,29.68,NW,315,8.7,10.5,56,0.00,,---,0.00,VWS V14.01,2013-07-04 03:57:00,
2013-07-04 14:01:00,68.0,50.8,29.68,West,270,14.3,14.3,54,0.00,,---,0.00,VWS V14.01,2013-07-04 04:01:00,
2013-07-04 14:06:00,68.0,52.7,29.68,WSW,248,12.3,12.3,58,0.00,,---,0.00,VWS V14.01,2013-07-04 04:06:00,
2013-07-04 14:11:00,68.2,53.3,29.68,West,270,13.2,13.2,59,0.00,,---,0.00,VWS V14.01,2013-07-04 04:11:00,
2013-07-04 14:16:00,68.0,52.7,29.65,WNW,292,9.6,9.6,58,0.00,,---,0.00,VWS V14.01,2013-07-04 04:16:00,
2013-07-04 14:21:00,68.2,52.9,29.65,West,270,7.2,12.8,58,0.00,,---,0.00,VWS V14.01,2013-07-04 04:21:00,
2013-07-04 14:26:00,68.2,52.9,29.68,West,270,10.3,10.3,58,0.00,,---,0.00,VWS V14.01,2013-07-04 04:26:00,
2013-07-04 14:31:00,68.2,51.9,29.68,WNW,292,12.1,12.1,56,0.00,,---,0.00,VWS V14.01,2013-07-04 04:31:00,
2013-07-04 14:36:00,68.2,52.9,29.68,West,270,8.7,8.7,58,0.00,,---,0.00,VWS V14.01,2013-07-04 04:36:00,
2013-07-04 14:41:00,68.2,52.9,29.68,WNW,292,13.0,13.0,58,0.00,,---,0.00,VWS V14.01,2013-07-04 04:41:00,
2013-07-04 14:46:00,68.2,50.4,29.68,West,270,5.4,17.7,53,0.00,,---,0.00,VWS V14.01,2013-07-04 04:46:00,
2013-07-04 14:51:00,68.2,52.4,29.68,WNW,292,8.5,8.5,57,0.00,,---,0.00,VWS V14.01,2013-07-04 04:51:00,
2013-07-04 14:56:00,68.2,52.4,29.68,NW,315,6.0,6.0,57,0.00,,---,0.00,VWS V14.01,2013-07-04 04:56:00,
2013-07-04 15:01:00,68.2,51.9,29.68,NW,315,14.1,14.1,56,0.00,,---,0.00,VWS V14.01,2013-07-04 05:01:00,
2013-07-04 15:06:00,68.0,51.7,29.68,West,270,8.7,8.7,56,0.00,,---,0.00,VWS V14.01,2013-07-04 05:06:00,
2013-07-04 15:11:00,68.0,51.7,29.68,NW,315,5.4,9.6,56,0.00,,---,0.00,VWS V14.01,2013-07-04 05:11:00,
2013-07-04 15:16:00,68.0,52.2,29.68,West,270,10.3,10.3,57,0.00,,---,0.00,VWS V14.01,2013-07-04 05:16:00,
2013-07-04 15:21:00,68.0,52.2,29.68,WNW,292,9.8,9.8,57,0.00,,---,0.00,VWS V14.01,2013-07-04 05:21:00,
2013-07-04 15:26:00,68.0,51.7,29.68,West,270,8.7,8.7,56,0.00,,---,0.00,VWS V14.01,2013-07-04 05:26:00,
2013-07-04 15:31:00,67.8,52.0,29.68,NW,315,6.3,8.7,57,0.00,,---,0.00,VWS V14.01,2013-07-04 05:31:00,
2013-07-04 15:36:00,67.8,52.0,29.68,North,0,4.7,7.6,57,0.00,,---,0.00,VWS V14.01,2013-07-04 05:36:00,
2013-07-04 15:41:00,67.8,52.0,29.68,WNW,292,5.8,6.3,57,0.00,,---,0.00,VWS V14.01,2013-07-04 05:41:00,
2013-07-04 15:46:00,67.6,51.9,29.68,WNW,292,12.1,12.1,57,0.00,,---,0.00,VWS V14.01,2013-07-04 05:46:00,
2013-07-04 15:51:00,67.6,51.9,29.68,North,0,4.9,4.9,57,0.00,,---,0.00,VWS V14.01,2013-07-04 05:51:00,
2013-07-04 15:56:00,67.6,51.9,29.68,West,270,6.3,10.5,57,0.00,,---,0.00,VWS V14.01,2013-07-04 05:56:00,
2013-07-04 16:01:00,67.5,51.7,29.68,WNW,292,7.4,7.4,57,0.00,,---,0.00,VWS V14.01,2013-07-04 06:01:00,
2013-07-04 16:06:00,67.5,51.7,29.68,West,270,7.4,9.6,57,0.00,,---,0.00,VWS V14.01,2013-07-04 06:06:00,
2013-07-04 16:11:00,67.5,51.7,29.68,WNW,292,12.8,12.8,57,0.00,,---,0.00,VWS V14.01,2013-07-04 06:11:00,
2013-07-04 16:16:00,67.3,52.0,29.68,NW,315,7.4,7.4,58,0.00,,---,0.00,VWS V14.01,2013-07-04 06:16:00,
2013-07-04 16:21:00,67.1,51.8,29.68,NNW,338,4.3,4.3,58,0.00,,---,0.00,VWS V14.01,2013-07-04 06:21:00,
2013-07-04 16:26:00,67.1,51.8,29.68,NNW,338,6.3,7.8,58,0.00,,---,0.00,VWS V14.01,2013-07-04 06:26:00,
2013-07-04 16:31:00,66.9,51.7,29.68,North,0,3.8,6.5,58,0.00,,---,0.00,VWS V14.01,2013-07-04 06:31:00,
2013-07-04 16:36:00,66.7,51.5,29.68,WNW,292,6.3,6.3,58,0.00,,---,0.00,VWS V14.01,2013-07-04 06:36:00,
2013-07-04 16:41:00,66.6,51.3,29.68,NNW,338,9.0,9.0,58,0.00,,---,0.00,VWS V14.01,2013-07-04 06:41:00,
2013-07-04 16:46:00,66.4,51.2,29.68,NW,315,10.7,10.7,58,0.00,,---,0.00,VWS V14.01,2013-07-04 06:46:00,
2013-07-04 16:51:00,66.2,51.5,29.68,NW,315,10.7,10.7,59,0.00,,---,0.00,VWS V14.01,2013-07-04 06:51:00,
2013-07-04 16:56:00,66.0,51.3,29.68,NW,315,4.9,4.9,59,0.00,,---,0.00,VWS V14.01,2013-07-04 06:56:00,
2013-07-04 17:01:00,65.8,51.1,29.68,NW,315,6.3,6.3,59,0.00,,---,0.00,VWS V14.01,2013-07-04 07:01:00,
2013-07-04 17:06:00,65.7,51.0,29.68,NW,315,4.9,8.1,59,0.00,,---,0.00,VWS V14.01,2013-07-04 07:06:00,
2013-07-04 17:11:00,65.7,51.0,29.68,WNW,292,2.9,5.6,59,0.00,,---,0.00,VWS V14.01,2013-07-04 07:11:00,
2013-07-04 17:16:00,65.5,50.8,29.68,West,270,5.4,7.8,59,0.00,,---,0.00,VWS V14.01,2013-07-04 07:16:00,
2013-07-04 17:21:00,65.3,50.2,29.68,NW,315,4.0,4.0,58,0.00,,---,0.00,VWS V14.01,2013-07-04 07:21:00,
2013-07-04 17:26:00,65.1,50.5,29.68,NNW,338,3.8,3.8,59,0.00,,---,0.00,VWS V14.01,2013-07-04 07:26:00,
2013-07-04 17:31:00,64.8,50.1,29.68,NW,315,3.8,3.8,59,0.00,,---,0.00,VWS V14.01,2013-07-04 07:31:00,
2013-07-04 17:36:00,64.6,50.0,29.68,NNW,338,0.9,0.9,59,0.00,,---,0.00,VWS V14.01,2013-07-04 07:36:00,
2013-07-04 17:41:00,64.4,50.2,29.71,West,270,2.9,3.1,60,0.00,,---,0.00,VWS V14.01,2013-07-04 07:41:00,
2013-07-04 17:46:00,64.0,50.3,29.71,NW,315,3.8,3.8,61,0.00,,---,0.00,VWS V14.01,2013-07-04 07:46:00,
2013-07-04 17:51:00,63.9,50.2,29.71,West,270,2.0,3.1,61,0.00,,---,0.00,VWS V14.01,2013-07-04 07:51:00,
2013-07-04 17:56:00,63.7,50.0,29.71,NNW,338,0.0,0.0,61,0.00,,---,0.00,VWS V14.01,2013-07-04 07:56:00,
2013-07-04 18:01:00,63.5,49.8,29.71,WNW,292,2.5,2.5,61,0.00,,---,0.00,VWS V14.01,2013-07-04 08:01:00,
2013-07-04 18:06:00,63.5,50.3,29.71,South,180,0.0,0.0,62,0.00,,---,0.00,VWS V14.01,2013-07-04 08:06:00,
2013-07-04 18:11:00,63.3,50.1,29.71,NW,315,0.0,1.3,62,0.00,,---,0.00,VWS V14.01,2013-07-04 08:11:00,
2013-07-04 18:16:00,63.1,49.9,29.71,West,270,0.9,2.0,62,0.00,,---,0.00,VWS V14.01,2013-07-04 08:16:00,
2013-07-04 18:21:00,63.0,49.8,29.71,NW,315,1.3,1.3,62,0.00,,---,0.00,VWS V14.01,2013-07-04 08:21:00,
2013-07-04 18:26:00,63.0,50.2,29.71,West,270,2.9,2.9,63,0.00,,---,0.00,VWS V14.01,2013-07-04 08:26:00,
2013-07-04 18:31:00,62.8,50.0,29.71,WNW,292,0.0,0.0,63,0.00,,---,0.00,VWS V14.01,2013-07-04 08:31:00,
2013-07-04 18:36:00,62.8,50.0,29.71,North,0,1.6,1.6,63,0.00,,---,0.00,VWS V14.01,2013-07-04 08:36:00,
2013-07-04 18:41:00,62.6,49.8,29.74,NNW,338,3.4,3.4,63,0.00,,---,0.00,VWS V14.01,2013-07-04 08:41:00,
2013-07-04 18:46:00,62.6,49.8,29.74,WNW,292,2.5,3.8,63,0.00,,---,0.00,VWS V14.01,2013-07-04 08:46:00,
2013-07-04 18:51:00,62.6,49.8,29.74,NNW,338,2.9,2.9,63,0.00,,---,0.00,VWS V14.01,2013-07-04 08:51:00,
2013-07-04 18:56:00,62.4,49.7,29.71,WNW,292,2.0,2.0,63,0.00,,---,0.00,VWS V14.01,2013-07-04 08:56:00,
2013-07-04 19:01:00,62.4,49.7,29.71,NNE,22,2.9,2.9,63,0.00,,---,0.00,VWS V14.01,2013-07-04 09:01:00,
2013-07-04 19:06:00,62.2,49.5,29.71,NW,315,1.3,1.3,63,0.00,,---,0.00,VWS V14.01,2013-07-04 09:06:00,
2013-07-04 19:11:00,62.2,49.5,29.74,NW,315,2.0,2.0,63,0.00,,---,0.00,VWS V14.01,2013-07-04 09:11:00,
2013-07-04 19:16:00,62.1,49.8,29.74,West,270,2.0,2.0,64,0.00,,---,0.00,VWS V14.01,2013-07-04 09:16:00,
2013-07-04 19:21:00,61.9,49.6,29.74,NW,315,1.1,1.1,64,0.00,,---,0.00,VWS V14.01,2013-07-04 09:21:00,
2013-07-04 19:26:00,61.9,49.6,29.74,NW,315,0.0,2.2,64,0.00,,---,0.00,VWS V14.01,2013-07-04 09:26:00,
2013-07-04 19:31:00,61.7,49.4,29.74,West,270,0.0,0.0,64,0.00,,---,0.00,VWS V14.01,2013-07-04 09:31:00,
2013-07-04 19:36:00,61.7,49.4,29.74,WNW,292,0.9,0.9,64,0.00,,---,0.00,VWS V14.01,2013-07-04 09:36:00,
2013-07-04 19:41:00,61.5,49.2,29.74,West,270,0.0,1.3,64,0.00,,---,0.00,VWS V14.01,2013-07-04 09:41:00,
2013-07-04 19:46:00,61.5,49.2,29.74,NW,315,0.0,0.0,64,0.00,,---,0.00,VWS V14.01,2013-07-04 09:46:00,
2013-07-04 19:51:00,61.3,49.5,29.74,NW,315,0.0,0.0,65,0.00,,---,0.00,VWS V14.01,2013-07-04 09:51:00,
2013-07-04 19:56:00,61.2,49.3,29.74,NW,315,2.5,2.5,65,0.00,,---,0.00,VWS V14.01,2013-07-04 09:56:00,
2013-07-04 20:01:00,61.2,49.3,29.74,West,270,2.9,2.9,65,0.00,,---,0.00,VWS V14.01,2013-07-04 10:01:00,
2013-07-04 20:06:00,61.0,49.2,29.74,WNW,292,0.0,0.0,65,0.00,,---,0.00,VWS V14.01,2013-07-04 10:06:00,
2013-07-04 20:11:00,60.8,49.0,29.74,NW,315,0.0,0.0,65,0.00,,---,0.00,VWS V14.01,2013-07-04 10:11:00,
2013-07-04 20:16:00,60.8,49.0,29.71,WNW,292,0.0,0.0,65,0.00,,---,0.00,VWS V14.01,2013-07-04 10:16:00,
2013-07-04 20:21:00,60.6,49.2,29.71,NW,315,1.3,1.3,66,0.00,,---,0.00,VWS V14.01,2013-07-04 10:21:00,
2013-07-04 20:26:00,60.6,49.2,29.74,WNW,292,0.0,0.0,66,0.00,,---,0.00,VWS V14.01,2013-07-04 10:26:00,
2013-07-04 20:31:00,60.4,49.0,29.74,North,0,2.2,2.2,66,0.00,,---,0.00,VWS V14.01,2013-07-04 10:31:00,
2013-07-04 20:36:00,60.3,49.3,29.74,WNW,292,0.0,0.0,67,0.00,,---,0.00,VWS V14.01,2013-07-04 10:36:00,
2013-07-04 20:41:00,60.1,49.1,29.74,ESE,112,0.0,0.0,67,0.00,,---,0.00,VWS V14.01,2013-07-04 10:41:00,
2013-07-04 20:46:00,59.9,48.9,29.74,SW,225,0.0,0.0,67,0.00,,---,0.00,VWS V14.01,2013-07-04 10:46:00,
2013-07-04 20:51:00,59.7,48.8,29.74,NE,45,0.0,0.0,67,0.00,,---,0.00,VWS V14.01,2013-07-04 10:51:00,
2013-07-04 20:56:00,59.7,49.2,29.74,NNW,338,0.0,1.6,68,0.00,,---,0.00,VWS V14.01,2013-07-04 10:56:00,
2013-07-04 21:01:00,59.5,49.0,29.74,NE,45,0.0,0.0,68,0.00,,---,0.00,VWS V14.01,2013-07-04 11:01:00,
2013-07-04 21:06:00,59.4,48.8,29.74,NE,45,0.0,1.1,68,0.00,,---,0.00,VWS V14.01,2013-07-04 11:06:00,
2013-07-04 21:11:00,59.2,48.6,29.74,WNW,292,0.0,0.0,68,0.00,,---,0.00,VWS V14.01,2013-07-04 11:11:00,
2013-07-04 21:16:00,59.2,49.0,29.74,North,0,1.3,1.3,69,0.00,,---,0.00,VWS V14.01,2013-07-04 11:16:00,
2013-07-04 21:21:00,59.2,49.0,29.74,NNW,338,0.0,1.1,69,0.00,,---,0.00,VWS V14.01,2013-07-04 11:21:00,
2013-07-04 21:26:00,59.2,49.0,29.74,North,0,1.1,2.5,69,0.00,,---,0.00,VWS V14.01,2013-07-04 11:26:00,
2013-07-04 21:31:00,59.2,49.0,29.74,NW,315,0.0,1.3,69,0.00,,---,0.00,VWS V14.01,2013-07-04 11:31:00,
2013-07-04 21:36:00,59.0,48.9,29.74,West,270,0.0,1.1,69,0.00,,---,0.00,VWS V14.01,2013-07-04 11:36:00,
2013-07-04 21:41:00,59.0,48.9,29.74,NW,315,0.0,0.0,69,0.00,,---,0.00,VWS V14.01,2013-07-04 11:41:00,
2013-07-04 21:46:00,59.0,48.9,29.74,NW,315,0.0,0.0,69,0.00,,---,0.00,VWS V14.01,2013-07-04 11:46:00,
2013-07-04 21:51:00,58.8,48.7,29.74,NW,315,0.0,0.0,69,0.00,,---,0.00,VWS V14.01,2013-07-04 11:51:00,
2013-07-04 21:56:00,58.6,48.5,29.74,North,0,0.0,0.0,69,0.00,,---,0.00,VWS V14.01,2013-07-04 11:56:00,
2013-07-04 22:01:00,58.5,48.7,29.74,East,90,0.0,0.0,70,0.00,,---,0.00,VWS V14.01,2013-07-04 12:01:00,
2013-07-04 22:06:00,58.3,48.5,29.74,ESE,112,0.0,0.0,70,0.00,,---,0.00,VWS V14.01,2013-07-04 12:06:00,
2013-07-04 22:11:00,58.1,48.4,29.71,West,270,0.0,0.0,70,0.00,,---,0.00,VWS V14.01,2013-07-04 12:11:00,
2013-07-04 22:16:00,58.1,48.4,29.71,North,0,1.6,2.7,70,0.00,,---,0.00,VWS V14.01,2013-07-04 12:16:00,
2013-07-04 22:21:00,58.1,48.4,29.71,ENE,68,0.0,0.0,70,0.00,,---,0.00,VWS V14.01,2013-07-04 12:21:00,
2013-07-04 22:26:00,57.9,48.2,29.74,SW,225,0.0,0.0,70,0.00,,---,0.00,VWS V14.01,2013-07-04 12:26:00,
2013-07-04 22:31:00,57.7,48.0,29.74,WNW,292,0.0,0.0,70,0.00,,---,0.00,VWS V14.01,2013-07-04 12:31:00,
2013-07-04 22:36:00,57.7,48.0,29.74,North,0,0.0,0.0,70,0.00,,---,0.00,VWS V14.01,2013-07-04 12:36:00,
2013-07-04 22:41:00,57.6,47.9,29.74,West,270,0.0,0.0,70,0.00,,---,0.00,VWS V14.01,2013-07-04 12:41:00,
2013-07-04 22:46:00,57.6,48.2,29.74,WNW,292,0.0,0.0,71,0.00,,---,0.00,VWS V14.01,2013-07-04 12:46:00,
2013-07-04 22:51:00,57.4,48.1,29.74,West,270,0.0,0.0,71,0.00,,---,0.00,VWS V14.01,2013-07-04 12:51:00,
2013-07-04 22:56:00,57.4,48.1,29.74,NW,315,1.6,1.6,71,0.00,,---,0.00,VWS V14.01,2013-07-04 12:56:00,
2013-07-04 23:01:00,57.2,47.9,29.74,NE,45,2.5,2.5,71,0.00,,---,0.00,VWS V14.01,2013-07-04 13:01:00,
2013-07-04 23:06:00,57.4,48.1,29.74,North,0,2.7,2.7,71,0.00,,---,0.00,VWS V14.01,2013-07-04 13:06:00,
2013-07-04 23:11:00,57.2,47.9,29.71,North,0,0.0,0.0,71,0.00,,---,0.00,VWS V14.01,2013-07-04 13:11:00,
2013-07-04 23:16:00,57.2,47.9,29.71,East,90,1.6,1.6,71,0.00,,---,0.00,VWS V14.01,2013-07-04 13:16:00,
2013-07-04 23:21:00,57.2,48.3,29.71,NNE,22,0.0,2.0,72,0.00,,---,0.00,VWS V14.01,2013-07-04 13:21:00,
2013-07-04 23:26:00,56.8,47.9,29.68,NE,45,0.9,0.9,72,0.00,,---,0.00,VWS V14.01,2013-07-04 13:26:00,
2013-07-04 23:31:00,56.8,47.9,29.68,East,90,0.0,0.0,72,0.00,,---,0.00,VWS V14.01,2013-07-04 13:31:00,
2013-07-04 23:36:00,56.8,48.3,29.68,NE,45,0.0,0.0,73,0.00,,---,0.00,VWS V14.01,2013-07-04 13:36:00,
2013-07-04 23:41:00,56.7,48.1,29.68,East,90,0.0,0.0,73,0.00,,---,0.00,VWS V14.01,2013-07-04 13:41:00,
2013-07-04 23:46:00,56.7,48.1,29.68,East,90,0.0,3.4,73,0.00,,---,0.00,VWS V14.01,2013-07-04 13:46:00,
2013-07-04 23:51:00,56.5,47.9,29.68,NE,45,0.0,0.0,73,0.00,,---,0.00,VWS V14.01,2013-07-04 13:51:00,
2013-07-04 23:56:00,56.3,47.8,29.65,NNE,22,0.0,0.0,73,0.00,,---,0.00,VWS V14.01,2013-07-04 13:56:00,